Regional Weather Roundup
Issued by NWS

Home | Current Version | Previous Version | Graphics & Text | Print | Product List | Glossary On
Versions: 1 2 3 4 5 6 7 8 9 10 11 12 13 14 15 16 17 18 19 20 21 22 23 24 25 26 27 28 29 30 31 32 33 34 35 36 37 38 39 40 41 42 43 44 45 46 47 48 49 50
000
ASUS45 KTFX 040910
RWRMT
MONTANA REGIONAL WEATHER ROUNDUP
NATIONAL WEATHER SERVICE GREAT FALLS MT
300 AM MDT WED MAY 04 2016

NOTE: "FAIR" INDICATES FEW OR NO CLOUDS BELOW 12000 FEET WITH NO
SIGNIFICANT WEATHER AND/OR OBSTRUCTIONS TO VISIBILITY.

MTZ001>007-043-041000-
WEST OF THE DIVIDE

CITY           SKY/WX    TMP DP  RH WIND       PRES   REMARKS
KALISPELL      CLEAR     46  42  86 CALM      29.99S
MISSOULA       CLEAR     53  38  56 CALM      30.05R
BUTTE          CLEAR     42  28  57 CALM      30.16S
MULLAN PASS    CLEAR     56  28  34 S5        30.13F
$$

MTZ008-052>055-041000-
SOUTHWEST MONTANA

CITY           SKY/WX    TMP DP  RH WIND       PRES   REMARKS
BOZEMAN        CLEAR     40  33  76 SE12      30.13S
DILLON         CLEAR     43  28  55 SE9       30.15S
ENNIS          CLEAR     46  27  46 S9G16     30.22S
$$

MTZ009-010-012-014-046-048-049-054-041000-
EAST SLOPES AND CENTRAL MONTANA

CITY           SKY/WX    TMP DP  RH WIND       PRES   REMARKS
CUT BANK       CLEAR     48  34  58 NW6       30.02F
GREAT FALLS    CLEAR     46  37  71 SW10      30.02F
MALMSTROM AFB  CLEAR     54  39  58 W5        30.02F
HELENA         CLEAR     52  34  50 SW3       30.07S
$$

MTZ011-013-016-021-045-047-050-051-041000-
NORTH CENTRAL MONTANA

CITY           SKY/WX    TMP DP  RH WIND       PRES   REMARKS
HAVRE          CLEAR     46  41  82 CALM      29.98F
LEWISTOWN      CLEAR     49  36  61 SE7       30.08S
N BAR RANCH      N/A     50  36  57 NW8       30.13F
$$

MTZ017>020-022>027-061-062-041000-
NORTHEAST MONTANA

CITY           SKY/WX    TMP DP  RH WIND       PRES   REMARKS
GLASGOW        CLEAR     51  39  63 E12       30.03F
JORDAN           N/A     44  41  89 CALM      30.05F
SIDNEY         PTCLDY    45  39  81 CALM      30.07S
WOLF POINT     CLEAR     48  40  73 CALM      30.05R
$$

MTZ028>42-056>058-041000-
SOUTHCENTRAL AND SOUTHEAST MONTANA

CITY           SKY/WX    TMP DP  RH WIND       PRES   REMARKS
BAKER          CLEAR     50  38  63 S7        30.11S
BILLINGS       CLEAR     54  38  54 CALM      30.09S
LIVINGSTON     CLEAR     43  32  65 W5        30.13S
MILES CITY     CLEAR     54  40  59 SE7       30.07S
$$

REGIONAL REPORTS...DAKOTAS

CITY           SKY/WX    TMP DP  RH WIND       PRES   REMARKS
WILLISTON      CLEAR     43  38  82 CALM      30.07S
MINOT          CLEAR     47  28  47 CALM      30.08S
DICKINSON      CLEAR     42  34  73 S6        30.09S
BEACH            N/A     46  39  76 S7        30.12S
CROSBY           N/A     50  36  57 S9        30.07S
TIOGA            N/A     46  34  61 CALM      30.12S
WATFORD CITY     N/A     41  37  87 CALM      30.09S
BISMARCK       CLEAR     37  33  85 CALM      30.11R
GRAND FORKS    CLEAR     37  30  75 NW7       30.05R WCI  32
FARGO          CLEAR     40  28  62 N8        30.03R
BUFFALO SD       N/A     52  37  56 W7        30.06S
RAPID CITY     CLEAR     47  37  68 NW9       30.13R
$$

REGIONAL REPORTS...WYOMING/IDAHO/WASHINGTON

CITY           SKY/WX    TMP DP  RH WIND       PRES   REMARKS
GILLETTE       CLEAR     47  38  71 S12       30.16S
SHERIDAN       CLEAR     42  35  76 CALM      30.12F
BUFFALO WY     CLEAR     54  31  41 W6        30.17F
CODY           CLEAR     52  30  43 SW7       30.16S
YELLOWSTONE LA   N/A     28  23  81 CALM      30.36S
IDAHO FALLS    CLEAR     40  31  70 N6        30.18S
SALMON         CLEAR     43  28  56 S3        30.12R
BOISE          PTCLDY    62  34  35 SE8       29.99F
SPOKANE        PTCLDY    60  38  43 S8        29.96R
$$

REGIONAL REPORTS...ALBERTA

CITY           SKY/WX    TMP DP  RH WIND       PRES   REMARKS
EDMONTON       PTCLDY    57  32  38 W9        29.80F
LETHBRIDGE     CLEAR     52  36  54 SW6       29.96F
MEDICINE HAT   CLEAR     55  41  58 SW10      29.94S
WATERTON GATE    N/A     45  34  65 SW6         N/A
MILK RIVER       N/A     41  36  81 W3          N/A
ONEFOUR          N/A     50  37  62 SE6         N/A
$$

REGIONAL REPORTS...SASKATCHEWAN

CITY           SKY/WX    TMP DP  RH WIND       PRES   REMARKS
SWIFT CURRENT  CLEAR     54  41  62 S14       29.98F
REGINA         CLEAR     50  36  57 SE12      30.01S
SASKATOON      CLEAR     55  41  58 S8        29.92S
CYPRESS HILLS    N/A     52  36  54 S6          N/A
VAL MARIE        N/A     43  36  75 NE5         N/A
ROCKGLEN         N/A     50  37  62 SW8         N/A
ASSINIBOIA       N/A     48  39  71 S6          N/A
$$



USA.gov is the U.S. government's official web portal to all federal, state and local government web resources and services.